TimeCST,TemperatureF,Dew PointF,Humidity,Sea Level PressureIn,VisibilityMPH,Wind Direction,Wind SpeedMPH,Gust SpeedMPH,PrecipitationIn,Events,Conditions,WindDirDegrees,DateUTC
12:15 AM,33.8,17.6,52,30.33,10.0,WNW,8.1,-,N/A,,Clear,290,2012-12-21 06:15:00
12:35 AM,33.8,19.4,56,30.33,10.0,WNW,8.1,-,N/A,,Clear,300,2012-12-21 06:35:00
12:55 AM,33.8,19.4,56,30.33,10.0,WNW,9.2,-,N/A,,Clear,290,2012-12-21 06:55:00
1:15 AM,33.8,19.4,56,30.32,10.0,WNW,6.9,-,N/A,,Clear,300,2012-12-21 07:15:00
1:35 AM,33.8,19.4,56,30.33,10.0,WNW,6.9,-,N/A,,Clear,290,2012-12-21 07:35:00
1:55 AM,32.0,19.4,60,30.33,10.0,WNW,6.9,-,N/A,,Clear,290,2012-12-21 07:55:00
2:15 AM,32.0,19.4,60,30.33,10.0,WNW,6.9,-,N/A,,Clear,300,2012-12-21 08:15:00
2:35 AM,32.0,19.4,60,30.33,10.0,NW,5.8,-,N/A,,Clear,310,2012-12-21 08:35:00
2:55 AM,32.0,19.4,60,30.33,10.0,WNW,5.8,-,N/A,,Clear,300,2012-12-21 08:55:00
3:15 AM,32.0,19.4,60,30.33,10.0,WNW,3.5,-,N/A,,Clear,290,2012-12-21 09:15:00
3:35 AM,30.2,19.4,64,30.33,10.0,Calm,Calm,-,N/A,,Clear,0,2012-12-21 09:35:00
3:55 AM,30.2,19.4,64,30.33,10.0,Calm,Calm,-,N/A,,Clear,0,2012-12-21 09:55:00
4:15 AM,30.2,21.2,69,30.34,10.0,Calm,Calm,-,N/A,,Clear,0,2012-12-21 10:15:00
4:35 AM,30.2,21.2,69,30.35,10.0,Calm,Calm,-,N/A,,Clear,0,2012-12-21 10:35:00
4:55 AM,28.4,21.2,74,30.35,10.0,Calm,Calm,-,N/A,,Clear,0,2012-12-21 10:55:00
5:15 AM,28.4,21.2,74,30.35,10.0,Calm,Calm,-,N/A,,Clear,0,2012-12-21 11:15:00
5:35 AM,28.4,21.2,74,30.35,10.0,Calm,Calm,-,N/A,,Clear,0,2012-12-21 11:35:00
5:55 AM,30.2,21.2,69,30.36,10.0,Calm,Calm,-,N/A,,Clear,0,2012-12-21 11:55:00
6:15 AM,28.4,21.2,74,30.36,10.0,Calm,Calm,-,N/A,,Clear,0,2012-12-21 12:15:00
6:35 AM,26.6,21.2,80,30.36,10.0,Calm,Calm,-,N/A,,Clear,0,2012-12-21 12:35:00
6:55 AM,26.6,19.4,74,30.36,10.0,Calm,Calm,-,N/A,,Clear,0,2012-12-21 12:55:00
7:15 AM,24.8,21.2,86,30.37,10.0,Calm,Calm,-,N/A,,Clear,0,2012-12-21 13:15:00
7:35 AM,26.6,19.4,74,30.37,10.0,Calm,Calm,-,N/A,,Clear,0,2012-12-21 13:35:00
7:55 AM,24.8,21.2,86,30.37,10.0,Calm,Calm,-,N/A,,Clear,0,2012-12-21 13:55:00
8:15 AM,26.6,21.2,80,30.37,10.0,Calm,Calm,-,N/A,,Clear,0,2012-12-21 14:15:00
8:35 AM,28.4,21.2,74,30.38,10.0,Calm,Calm,-,N/A,,Clear,0,2012-12-21 14:35:00
8:55 AM,30.2,23.0,75,30.38,10.0,Calm,Calm,-,N/A,,Clear,0,2012-12-21 14:55:00
9:15 AM,32.0,23.0,69,30.39,10.0,Calm,Calm,-,N/A,,Clear,0,2012-12-21 15:15:00
9:35 AM,33.8,24.8,70,30.38,10.0,Calm,Calm,-,N/A,,Clear,0,2012-12-21 15:35:00
9:55 AM,33.8,24.8,70,30.39,10.0,Calm,Calm,-,N/A,,Clear,0,2012-12-21 15:55:00
10:15 AM,35.6,24.8,65,30.40,10.0,Calm,Calm,-,N/A,,Clear,0,2012-12-21 16:15:00
10:35 AM,37.4,23.0,56,30.40,10.0,Calm,Calm,-,N/A,,Clear,0,2012-12-21 16:35:00
10:55 AM,39.2,23.0,52,30.40,10.0,Calm,Calm,-,N/A,,Clear,0,2012-12-21 16:55:00
11:15 AM,41.0,23.0,49,30.39,10.0,Calm,Calm,-,N/A,,Clear,0,2012-12-21 17:15:00
11:35 AM,42.8,21.2,42,30.38,10.0,SSW,3.5,-,N/A,,Clear,200,2012-12-21 17:35:00
11:55 AM,42.8,19.4,39,30.37,10.0,Calm,Calm,-,N/A,,Clear,0,2012-12-21 17:55:00
12:15 PM,44.6,19.4,37,30.36,10.0,Calm,Calm,-,N/A,,Clear,0,2012-12-21 18:15:00
12:35 PM,44.6,19.4,37,30.35,10.0,Calm,Calm,-,N/A,,Clear,0,2012-12-21 18:35:00
12:55 PM,46.4,19.4,34,30.34,10.0,Calm,Calm,-,N/A,,Clear,0,2012-12-21 18:55:00
1:15 PM,48.2,19.4,32,30.33,10.0,Calm,Calm,-,N/A,,Clear,0,2012-12-21 19:15:00
1:35 PM,50.0,19.4,30,30.31,10.0,Calm,Calm,-,N/A,,Clear,0,2012-12-21 19:35:00
1:55 PM,50.0,21.2,32,30.31,10.0,East,3.5,-,N/A,,Clear,80,2012-12-21 19:55:00
2:15 PM,51.8,19.4,28,30.30,10.0,Calm,Calm,-,N/A,,Clear,0,2012-12-21 20:15:00
2:35 PM,51.8,21.2,30,30.29,10.0,East,3.5,-,N/A,,Clear,100,2012-12-21 20:35:00
2:55 PM,51.8,21.2,30,30.28,10.0,East,3.5,-,N/A,,Clear,80,2012-12-21 20:55:00
3:15 PM,51.8,23.0,33,30.28,10.0,East,4.6,-,N/A,,Clear,90,2012-12-21 21:15:00
3:35 PM,51.8,23.0,33,30.27,10.0,East,5.8,-,N/A,,Clear,90,2012-12-21 21:35:00
3:55 PM,51.8,21.2,30,30.27,10.0,ESE,5.8,-,N/A,,Clear,120,2012-12-21 21:55:00
4:15 PM,51.8,21.2,30,30.27,10.0,ESE,4.6,-,N/A,,Clear,120,2012-12-21 22:15:00
4:35 PM,50.0,23.0,35,30.28,10.0,Calm,Calm,-,N/A,,Clear,0,2012-12-21 22:35:00
4:55 PM,50.0,23.0,35,30.28,10.0,Calm,Calm,-,N/A,,Clear,0,2012-12-21 22:55:00
5:15 PM,46.4,23.0,40,30.28,10.0,Calm,Calm,-,N/A,,Clear,0,2012-12-21 23:15:00
5:35 PM,42.8,23.0,46,30.28,10.0,East,3.5,-,N/A,,Clear,90,2012-12-21 23:35:00
5:55 PM,41.0,23.0,49,30.28,10.0,East,3.5,-,N/A,,Clear,90,2012-12-21 23:55:00
6:15 PM,39.2,24.8,56,30.28,10.0,East,3.5,-,N/A,,Clear,90,2012-12-22 00:15:00
6:35 PM,37.4,24.8,60,30.28,10.0,ESE,3.5,-,N/A,,Clear,110,2012-12-22 00:35:00
6:55 PM,37.4,24.8,60,30.28,10.0,East,3.5,-,N/A,,Clear,90,2012-12-22 00:55:00
7:15 PM,37.4,23.0,56,30.28,10.0,East,3.5,-,N/A,,Clear,90,2012-12-22 01:15:00
7:35 PM,35.6,24.8,65,30.28,10.0,Calm,Calm,-,N/A,,Clear,0,2012-12-22 01:35:00
7:55 PM,33.8,24.8,70,30.28,10.0,East,3.5,-,N/A,,Clear,90,2012-12-22 01:55:00
8:15 PM,33.8,23.0,65,30.28,10.0,East,3.5,-,N/A,,Clear,90,2012-12-22 02:15:00
8:35 PM,32.0,23.0,69,30.28,10.0,East,3.5,-,N/A,,Clear,90,2012-12-22 02:35:00
8:55 PM,32.0,23.0,69,30.28,10.0,East,3.5,-,N/A,,Clear,100,2012-12-22 02:55:00
9:15 PM,33.8,23.0,65,30.27,10.0,East,4.6,-,N/A,,Clear,80,2012-12-22 03:15:00
9:35 PM,32.0,26.6,80,30.27,10.0,Calm,Calm,-,N/A,,Clear,0,2012-12-22 03:35:00
9:55 PM,32.0,24.8,75,30.27,10.0,Calm,Calm,-,N/A,,Clear,0,2012-12-22 03:55:00
10:15 PM,32.0,26.6,80,30.27,10.0,Calm,Calm,-,N/A,,Clear,0,2012-12-22 04:15:00
10:35 PM,32.0,26.6,80,30.26,10.0,Calm,Calm,-,N/A,,Clear,0,2012-12-22 04:35:00
10:55 PM,32.0,26.6,80,30.26,10.0,Calm,Calm,-,N/A,,Clear,0,2012-12-22 04:55:00
11:15 PM,32.0,26.6,80,30.26,10.0,Calm,Calm,-,N/A,,Clear,0,2012-12-22 05:15:00
11:35 PM,30.2,24.8,80,30.25,10.0,Calm,Calm,-,N/A,,Clear,0,2012-12-22 05:35:00
11:55 PM,30.2,26.6,86,30.26,10.0,Calm,Calm,-,N/A,,Clear,0,2012-12-22 05:55:00